Twin Falls, ID

6:26 AM MDT on June 26, 2017 (GMT -0600)
Joslin Field-Magic Valley Regional

Weather History for KTWF - June, 2013

Change the Weather History Date:

Thursday, June 6, 2013

  Actual Average Record
Temperature  
Mean Temperature 75 °F -  
Max Temperature 89 °F 77 °F 92 °F (2006)
Min Temperature 61 °F 47 °F 35 °F (1991)
Degree Days  
Heating Degree Days 0 5  
Month to date heating degree days 10 32  
Since 1 June heating degree days 10 32  
Since 1 July heating degree days 5692 6116  
Cooling Degree Days 10 2  
Month to date cooling degree days 12 9  
Year to date cooling degree days 37 31  
Since 1 June cooling degree days 12 9  
Growing Degree Days 24 (Base 50)    
Moisture  
Dew Point 37 °F    
Average Humidity 33    
Maximum Humidity 49    
Minimum Humidity 16    
Precipitation  
Precipitation 0.00 in 0.05 in 0.38 in (1993)
Month to date precipitation 0.00 0.23  
Year to date precipitation 2.85 5.56  
Sea Level Pressure  
Sea Level Pressure 29.87 in    
Wind  
Wind Speed 8 mph (SW)    
Max Wind Speed 17 mph    
Max Gust Speed 22 mph    
Visibility 10 miles    
Events      
T = Trace of Precipitation, MM = Missing Value Source: NWS Daily Summary

Daily Weather History Graph

Daily Weather History Graph

Search for Another Location

Airport or City:

Trip Planner

Search our weather history database for the weather conditions in past years. The results will help you decide how hot, cold, wet, or windy it might be!

Date:

Astronomy

Jun. 06, 2013 Rise Set
Actual Time 6:01 AM MDT 9:12 PM MDT
Civil Twilight 5:26 AM MDT 9:46 PM MDT
Nautical Twilight 4:42 AM MDT 10:31 PM MDT
Astronomical Twilight 3:49 AM MDT 11:24 PM MDT
Moon 4:47 AM MDT (6/6) 7:36 PM MDT (6/6)
Length of Visible Light 16h 20m
Length of Day
15h 11m
Waning Crescent, 3% of the Moon is Illuminated
Jun 6
Waning Crescent
Jun 8
New
Jun 16
First Quarter
Jun 23
Full
Jun 29
Last Quarter

Hourly Weather History & Observations

Time (MDT) Temp. Dew Point Humidity Pressure Visibility Wind Dir Wind Speed Gust Speed Precip Events Conditions
12:53 AM 64.9 °F 32.0 °F 29% 29.88 in 10.0 mi South 15.0 mph - N/A   Clear
1:53 AM 64.9 °F 32.0 °F 29% 29.88 in 10.0 mi South 12.7 mph - N/A   Clear
2:53 AM 62.1 °F 34.0 °F 35% 29.87 in 10.0 mi South 12.7 mph - N/A   Clear
3:53 AM 62.1 °F 34.0 °F 35% 29.87 in 10.0 mi South 11.5 mph - N/A   Clear
4:53 AM 63.0 °F 34.0 °F 34% 29.87 in 10.0 mi South 12.7 mph - N/A   Clear
5:53 AM 63.0 °F 33.1 °F 33% 29.88 in 10.0 mi SSW 11.5 mph - N/A   Clear
6:53 AM 61.0 °F 36.0 °F 39% 29.90 in 10.0 mi South 9.2 mph - N/A   Clear
7:53 AM 69.1 °F 39.0 °F 33% 29.91 in 10.0 mi SSW 6.9 mph - N/A   Clear
8:53 AM 75.0 °F 35.1 °F 23% 29.92 in 10.0 mi WSW 6.9 mph - N/A   Clear
9:53 AM 78.1 °F 36.0 °F 22% 29.92 in 10.0 mi West 6.9 mph - N/A   Clear
10:53 AM 80.1 °F 37.0 °F 21% 29.91 in 10.0 mi West 10.4 mph - N/A   Clear
11:53 AM 82.9 °F 39.0 °F 21% 29.92 in 10.0 mi Variable 5.8 mph - N/A   Clear
12:53 PM 82.9 °F 37.0 °F 19% 29.91 in 10.0 mi West 4.6 mph - N/A   Clear
1:53 PM 86.0 °F 36.0 °F 17% 29.89 in 10.0 mi North 6.9 mph - N/A   Clear
2:53 PM 87.1 °F 36.0 °F 16% 29.87 in 10.0 mi NW 6.9 mph - N/A   Clear
3:53 PM 88.0 °F 37.0 °F 16% 29.85 in 10.0 mi North 10.4 mph - N/A   Clear
4:53 PM 87.1 °F 36.0 °F 16% 29.84 in 10.0 mi North 3.5 mph - N/A   Clear
5:53 PM 87.1 °F 36.0 °F 16% 29.82 in 10.0 mi Calm Calm - N/A   Clear
6:53 PM 88.0 °F 35.1 °F 15% 29.80 in 10.0 mi NW 3.5 mph - N/A   Clear
7:53 PM 87.1 °F 36.0 °F 16% 29.79 in 10.0 mi Calm Calm - N/A   Clear
8:53 PM 73.0 °F 54.0 °F 51% 29.80 in 10.0 mi SSE 6.9 mph - N/A   Clear
9:53 PM 66.9 °F 44.1 °F 44% 29.81 in 10.0 mi SSE 6.9 mph - N/A   Clear
10:53 PM 69.1 °F 41.0 °F 36% 29.83 in 10.0 mi SSW 6.9 mph - N/A   Clear
11:53 PM 72.0 °F 37.0 °F 28% 29.82 in 10.0 mi SW 10.4 mph - N/A   Clear